This is the latest recevied weather packets stored in our database for station/object F4ETJ-1. If no packets are shown the sender has not sent any weather packets the latest 10 day(s).
| Time | Temp. | Humidity | Pressure | Rain* | Wind** | Luminosity | Snow |
|---|---|---|---|---|---|---|---|
| 1787591524 | 25° C | 73% | 1004.6 hPa | 0 mm | - | - | - |
| 1787591164 | 25° C | 73% | 1004.7 hPa | 0 mm | - | - | - |
| 1787590804 | 25° C | 73% | 1004.8 hPa | 0 mm | - | - | - |
| 1787590443 | 25° C | 73% | 1004.8 hPa | 0 mm | - | - | - |
| 1787590083 | 25.56° C | 72% | 1004.8 hPa | 0 mm | - | - | - |
| 1787589723 | 26.11° C | 71% | 1004.8 hPa | 0 mm | - | - | - |
| 1787589362 | 25.56° C | 71% | 1005 hPa | 0 mm | - | - | - |
| 1787589002 | 26.11° C | 70% | 1005.1 hPa | 0 mm | - | - | - |
| 1787588642 | 26.67° C | 67% | 1005.1 hPa | 0 mm | - | - | - |
| 1787588281 | 26.67° C | 66% | 1005.1 hPa | 0 mm | - | - | - |
| 1787587921 | 26.67° C | 65% | 1005.2 hPa | 0 mm | - | - | - |
| 1787587561 | 26.67° C | 66% | 1005.2 hPa | 0 mm | - | - | - |
| 1787587200 | 26.67° C | 66% | 1005.4 hPa | 0 mm | - | - | - |
| 1787586840 | 26.11° C | 67% | 1005.5 hPa | 0 mm | - | - | - |
| 1787586480 | 26.11° C | 67% | 1005.6 hPa | 0 mm | - | - | - |
| 1787586119 | 26.11° C | 68% | 1005.6 hPa | 0 mm | - | - | - |
| 1787585759 | 25.56° C | 69% | 1005.5 hPa | 0 mm | - | - | - |
| 1787585399 | 25.56° C | 69% | 1005.4 hPa | 0 mm | - | - | - |
| 1787585038 | 25° C | 70% | 1005.4 hPa | 0 mm | - | - | - |
| 1787584678 | 25° C | 70% | 1005.5 hPa | 0 mm | - | - | - |
| 1787584318 | 25.56° C | 70% | 1005.4 hPa | 0 mm | - | - | - |
| 1787583957 | 25° C | 71% | 1005.3 hPa | 0 mm | - | - | - |
| 1787583597 | 25° C | 71% | 1005.2 hPa | 0 mm | - | - | - |
| 1787583237 | 25° C | 71% | 1005.2 hPa | 0 mm | - | - | - |
| 1787582879 | 25° C | 71% | 1005.2 hPa | 0 mm | - | - | - |
* Rain latest hour (hover to see other rain measurements)
** Current wind speed in m/s (hover to see current wind gust speed)